Regional Weather Roundup
Issued by NWS

Current Version | Previous Version | Text Only | Print | Product List | Glossary On
Versions: 1 2 3 4 5 6 7 8 9 10 11 12 13 14 15 16 17 18 19 20 21 22 23 24 25 26 27 28 29 30 31 32 33 34 35 36 37 38 39 40 41 42 43 44 45 46 47 48 49 50
000
ASUS42 KFFC 300410
RWRGA
WEATHER ROUNDUP FOR GEORGIA
NATIONAL WEATHER SERVICE PEACHTREE CITY GA
1200 AM EDT THU JUL 30 2015

NOTE: "FAIR" INDICATES FEW OR NO CLOUDS BELOW 12,000 FEET WITH NO
SIGNIFICANT WEATHER AND/OR OBSTRUCTIONS TO VISIBILITY.

* = USE WITH CAUTION. THE STATIONS MARKED WITH AN ASTERISK MAY NOT
REPORT WEATHER SUCH AS PRECIPITATION, FOG, OR THUNDER AND ARE NOT
QUALITY CONTROLLED BY NWS.

THE REMARK "TC" DENOTES TEMPERATURE READING IN DEGREES CELSIUS.

GAZ001>058-300500-
NORTH GEORGIA

CITY           SKY/WX    TMP DP  RH WIND       PRES   REMARKS
ATLANTA        MOCLDY    82  72  71 CALM      30.01R
ATHENS         PTCLDY    77  74  90 E5        30.00R
CHAMBLEE       MOCLDY    80  73  79 CALM      30.01S
PEACHTREE CITY PTCLDY    80  76  87 CALM      30.00S
ROME           PTCLDY    79  75  87 CALM      30.01R
WEST ATLANTA   MOCLDY    81  77  88 CALM      30.00R
GAINESVILLE    PTCLDY    79  72  79 CALM      30.05S
CARTERSVILLE   MOCLDY    77  72  84 CALM      30.01R


CITY           SKY/WX    TMP DP  RH WIND       PRES   REMARKS
DALTON*        PTCLDY    79  77  94 NW5       30.02R
MARIETTA       MOCLDY    83  74  74 E3        30.02R
BLAIRSVILLE*     N/A     73  65  75 CALM      30.09R HAZE
$$

GAZ059>098-102>109-300500-
CENTRAL GEORGIA

CITY           SKY/WX    TMP DP  RH WIND       PRES   REMARKS
AUGUSTA-BUSH   MOCLDY    82  74  76 SE8       29.96R
AUGUSTA-DANIEL MOCLDY    83  73  72 VRB5      29.98R
COLUMBUS       MOCLDY    81  72  74 S6        29.98R
MACON          MOCLDY    79  75  87 NW3       29.96F
ROBINS AFB     CLOUDY    80  76  88 CALM      29.95F


CITY           SKY/WX    TMP DP  RH WIND       PRES   REMARKS
LAGRANGE*      MOCLDY    82  79  92 CALM      30.00S HX  91
SYLVANIA*      MOCLDY    82  77  85 CALM      30.00R
MILLEDGEVILLE* MOCLDY    79  75  89 CALM      29.97S
$$

GAZ099>101-110>166-300500-
SOUTH GEORGIA

CITY           SKY/WX    TMP DP  RH WIND       PRES   REMARKS
SAVANNAH       PTCLDY    80  76  87 SW3       29.98R
VALDOSTA       MOCLDY    78  76  93 CALM      29.98F
ALMA           MOCLDY    76  74  93 SW7       29.98F
ST SIMONS      PTCLDY    80  76  87 W6        29.98R
FT STEWART     MOCLDY    78  73  85 SW6       29.97R
ALBANY         MOCLDY    77  75  93 CALM      29.99S
HUNTER AFB     CLEAR     80  80  99 SW2       29.96R
MOODY AFB      LGT RAIN  79  73  83 SW3       29.97F
BRUNSWICK      CLEAR     77  77 100 CALM      29.99R


CITY           SKY/WX    TMP DP  RH WIND       PRES   REMARKS
BAINBRIDGE*    CLOUDY    79  77  94 NW6       29.99R
MOULTRIE*      MOCLDY    77  73  88 CALM      29.98S
VIDALIA*       RAIN      79  73  83 S5        29.99R
WAYCROSS*      DRIZZLE   79  78  98 W6        29.98F
DOUGLAS*       RAIN      77  75  94 CALM      30.01S
$$



USA.gov is the U.S. government's official web portal to all federal, state and local government web resources and services.